sat.trackr.live / text

‹ back to catalog

PAKSAT-MM1

NORAD 59915 · 2024-104A

PAYLOAD ACTIVE UNKNOWN

§ Identity

Operator
Country
PAKI
Launch date
2024-05-30
Launch site
XICLF
Launch vehicle
Mass (kg)
RCS (m²)

Purposes: comms

External: N2YO · Heavens-Above · Gunter

§ Orbital elements

Epoch: 2026-05-25T03:55:31.215936Z

Period
1,436.04 min
Inclination
0.0167°
Eccentricity
0.0001483
Mean motion
1.00275738 rev/d
Perigee alt
35,779.2 km
Apogee alt
35,791.7 km
Semi-major
42,163.6 km
B*
0.0000e+0
RAAN
51.0537°
Arg perigee
2.6295°
Mean anomaly
286.1747°
Rev number
729

§ Raw data

PAKSAT-MM11 59915U 24104A   26145.16355574  .00000151  00000+0  00000+0 0  99992 59915   0.0167  51.0537 0001483   2.6295 286.1747  1.00275738  7292

JSON: /api/v1/satellites/59915 · /tle

For live sub-satellite position, see the globe view (requires WebGL).

§ Visibility from observer

Set your observer location to see the next 7 days of passes ≥ 10°. The values pass through the URL so the page stays shareable.

No JS? Fill the form by hand. The geolocation button needs JavaScript.